This demonstration page uses our WeatherBlox Daily Observations layout. Learn more.

Left ArrowRight Arrow

39.51506, -84.39828

Hourly Observations for September 28, 2020

Temp ( °F °C ) Dew Point ( °F °C ) Humidity (%) Winds ( mph kmh ) Pressure ( in mb ) Visibility ( mi km ) Precip ( " mm )
12:15 am 00:15 Clear 60 15.3 59 15.2 99 99 Calm 29.8 1009 10 16.0934 0 0
12:35 am 00:35 Clear with Mist and Fog 60 15.3 59 15.2 99 99 Calm 29.8 1009 5 8.0467 0 0
12:55 am 00:55 Clear 59 15 59 15 100 100 Calm 29.79 1009 10 16.0934 0 0
1:15 am 01:15 Hazy 59 15 N/A N/A Calm 29.79 1009 7 11.26538 0 0
1:35 am 01:35 Hazy 59 15 N/A N/A Calm 29.79 1009 5 8.0467 0 0
2:55 am 02:55 Clear 57 14 N/A N/A Calm 29.78 1008 7 11.26538 0 0
3:15 am 03:15 Hazy 57 14 N/A N/A Calm 29.77 1008 7 11.26538 0 0
3:35 am 03:35 Clear 57 14 N/A N/A Calm 29.76 1008 7 11.26538 0 0
3:55 am 03:55 Cloudy 57 14 N/A N/A Calm 29.76 1008 10 16.0934 0 0
4:15 am 04:15 Cloudy 57 14 N/A N/A Calm 29.75 1007 10 16.0934 0 0
4:35 am 04:35 Mostly Cloudy 59 15 N/A N/A Calm 29.75 1007 10 16.0934 0 0
4:55 am 04:55 Mostly Cloudy 60 15.3 59 15.2 99 99 Calm 29.75 1007 10 16.0934 0 0
5:15 am 05:15 Mostly Cloudy 59 15.1 59 15 99 99 Calm 29.75 1007 10 16.0934 0 0
5:35 am 05:35 Partly Cloudy 59 15.1 59 15 99 99 Calm 29.75 1007 10 16.0934 0 0
5:55 am 05:55 Partly Cloudy 57 14 N/A N/A Calm 29.75 1007 7 11.26538 0 0
6:15 am 06:15 Partly Cloudy with Mist and Fog 59 15 N/A N/A Calm 29.76 1008 1.5 2.41401 0 0
6:35 am 06:35 Partly Cloudy 59 15 N/A N/A Calm 29.75 1007 10 16.0934 0 0
6:55 am 06:55 Mostly Cloudy 59 15 N/A N/A Calm 29.76 1008 10 16.0934 0 0
7:15 am 07:15 Mostly Cloudy 61 16 N/A N/A Calm 29.75 1008 10 16.0934 0 0
7:35 am 07:35 Mostly Cloudy 63 17.3 62 16.6 96 96 S 3 6 29.75 1007 10 16.0934 0 0
7:55 am 07:55 Cloudy 64 17.6 62 16.7 95 95 WSW 3 6 29.76 1008 10 16.0934 0 0
8:15 am 08:15 Partly Cloudy 64 17.8 62 16.7 93 93 Calm 29.76 1008 10 16.0934 0 0
8:35 am 08:35 Sunny 66 18.8 62 16.9 89 89 Calm 29.75 1007 10 16.0934 0 0
8:55 am 08:55 Sunny 67 19.2 63 17 87 87 SSW 6 9 29.75 1007 10 16.0934 0 0
9:15 am 09:15 Partly Cloudy 67 19.7 62 16.8 83 83 S 10 17 29.76 1008 10 16.0934 0 0
9:35 am 09:35 Partly Cloudy 69 20.3 62 16.9 81 81 S 10 17 29.74 1007 10 16.0934 0 0
9:55 am 09:55 Mostly Cloudy 69 20.5 63 17 80 80 S 12 19 29.73 1007 10 16.0934 0 0
10:15 am 10:15 Sunny 69 20.7 63 17.3 81 81 S 7 11 29.73 1007 10 16.0934 0 0
10:35 am 10:35 Partly Cloudy 70 20.9 63 17.3 80 80 SSW 12 19 29.72 1007 10 16.0934 0 0
10:55 am 10:55 Sunny 71 21.4 64 17.6 79 79 SSW 13 20 29.72 1006 10 16.0934 0 0
11:15 am 11:15 Cloudy 71 21.5 64 17.7 79 79 S 12 19 29.73 1007 10 16.0934 0 0
11:35 am 11:35 Cloudy with Light Rain 69 20.7 65 18.1 85 85 S 9 15 29.72 1007 10 16.0934 0 0
11:55 am 11:55 Cloudy with Light Rain 68 20.2 66 19 93 93 S 7 11 29.71 1006 7 11.26538 0.01 0.254
12:15 pm 12:15 Cloudy with Light Rain 68 20.2 66 19.1 93 93 WSW 6 9 29.72 1007 7 11.26538 0.01 0.254
12:35 pm 12:35 Mostly Cloudy with Light Rain 69 20.5 67 19.5 94 94 SSW 6 9 29.71 1006 10 16.0934 0.01 0.254
12:55 pm 12:55 Cloudy with Light Rain 69 20.7 68 19.8 95 95 SW 3 6 29.71 1006 7 11.26538 0.01 0.254
1:15 pm 13:15 Cloudy with Light Rain 69 20.8 67 19.6 93 93 SSW 7 11 29.7 1006 10 16.0934 0 0
1:35 pm 13:35 Cloudy with Light Rain 70 21.1 67 19.6 91 91 SW 7 11 29.7 1006 10 16.0934 0 0
1:55 pm 13:55 Cloudy 70 21.3 67 19.6 90 90 WSW 7 11 29.68 1005 10 16.0934 0 0
2:15 pm 14:15 Cloudy with Light Rain 71 21.4 67 19.7 90 90 WSW 9 15 29.67 1005 10 16.0934 0 0
2:35 pm 14:35 Cloudy with Heavy Rain 69 20.6 67 19.4 93 93 W 9 15 29.67 1005 5 8.0467 0.03 0.762
2:55 pm 14:55 Cloudy with Heavy Rain 67 19.7 67 19.3 98 98 WSW 8 13 29.67 1005 3.5 5.63269 0.16 4.064
3:15 pm 15:15 Cloudy with Light Rain 62 16.4 60 15.7 96 96 WNW 21 33 29.69 1006 7 11.26538 0.05 1.27
3:35 pm 15:35 Cloudy with Light Rain 59 15 58 14.2 95 95 NW 18 30 29.73 1007 7 11.26538 0.08 2.032
3:55 pm 15:55 Cloudy with Light Rain 58 14.5 57 13.7 95 95 NW 14 22 29.75 1007 7 11.26538 0.09 2.286
4:15 pm 16:15 Cloudy with Light Rain 58 14.4 56 13.4 94 94 NW 8 13 29.76 1008 10 16.0934 0 0
4:35 pm 16:35 Cloudy with Drizzle 58 14.4 56 13.4 94 94 NW 9 15 29.77 1008 10 16.0934 0 0
4:55 pm 16:55 Cloudy with Light Rain 58 14.3 56 13.1 93 93 NW 8 13 29.78 1008 10 16.0934 0 0
5:15 pm 17:15 Cloudy with Light Rain 58 14.2 56 13.2 94 94 NW 6 9 29.78 1008 4 6.43736 0.02 0.508
5:35 pm 17:35 Cloudy with Light Rain 58 14.2 56 13.3 94 94 NNW 6 9 29.78 1008 10 16.0934 0.02 0.508
5:55 pm 17:55 Cloudy with Light Rain 57 14.1 56 13.3 95 95 NW 6 9 29.79 1009 10 16.0934 0.02 0.508
6:15 pm 18:15 Cloudy 57 14.1 56 13.2 94 94 W 5 7 29.81 1009 10 16.0934 0 0
6:35 pm 18:35 Cloudy 57 14.1 56 13.1 94 94 NW 6 9 29.81 1009 10 16.0934 0 0
6:55 pm 18:55 Cloudy 57 14.1 55 13 93 93 WNW 6 9 29.83 1010 10 16.0934 0 0
7:15 pm 19:15 Cloudy 57 13.9 55 12.7 93 93 W 8 13 29.84 1010 10 16.0934 0 0
7:35 pm 19:35 Cloudy 57 13.9 55 12.5 91 91 W 3 6 29.85 1011 10 16.0934 0 0
7:55 pm 19:55 Cloudy 57 13.8 54 12.3 91 91 Calm 29.86 1011 10 16.0934 0 0
8:15 pm 20:15 Cloudy 57 13.8 54 12.3 91 91 Calm 29.86 1011 10 16.0934 0 0
8:35 pm 20:35 Clear 56 13.5 55 12.8 96 96 Calm 29.86 1011 10 16.0934 0 0
8:55 pm 20:55 Mostly Cloudy 56 13.2 55 12.8 97 97 Calm 29.87 1012 10 16.0934 0 0
9:15 pm 21:15 Clear 55 13 55 12.6 97 97 Calm 29.87 1012 10 16.0934 0 0
9:35 pm 21:35 Clear 55 12.9 55 12.6 98 98 Calm 29.88 1012 10 16.0934 0 0
9:55 pm 21:55 Clear 55 12.9 55 12.6 98 98 SW 3 6 29.89 1012 10 16.0934 0 0
10:15 pm 22:15 Clear 55 13 55 12.7 98 98 SW 5 7 29.89 1012 10 16.0934 0 0
10:35 pm 22:35 Clear 55 13 55 12.7 98 98 SW 3 6 29.9 1013 10 16.0934 0 0
10:55 pm 22:55 Clear 55 12.6 54 12.4 99 99 SW 5 7 29.9 1013 10 16.0934 0 0
11:15 pm 23:15 Clear 54 12.3 54 12.2 99 99 SW 5 7 29.91 1013 10 16.0934 0 0
11:35 pm 23:35 Clear 54 12 54 12 100 100 SW 5 7 29.91 1013 10 16.0934 0 0
11:55 pm 23:55 Clear 54 12 N/A N/A SW 5 7 29.91 1013 10 16.0934 0 0

Powered by AerisWeather